Regional Weather Roundup
Issued by NWS

Home | Current Version | Previous Version | Text Only | Print | Product List | Glossary On
Versions: 1 2 3 4 5 6 7 8 9 10 11 12 13 14 15 16 17 18 19 20 21 22 23 24 25 26 27
000
ASUS44 KLIX 311012
RWRLA
LOUISIANA WEATHER ROUNDUP
NATIONAL WEATHER SERVICE NEW ORLEANS LA
500 AM CDT TUE MAY 31 2016

NOTE: "FAIR" INDICATES FEW OR NO CLOUDS BELOW 12,000 FEET WITH NO
      SIGNIFICANT WEATHER AND/OR OBSTRUCTIONS TO VISIBILITY.
      SKY/WX - SKY CONDITION AND SIGNIFICANT WEATHER.
      TMP - AIR TEMPERATURE.    DP   - DEWPOINT TEMPERATURE.
      RH  - RELATIVE HUMIDITY.  PRES - PRESSURE.
      HX  - HEAT INDEX.         WCI  - WIND CHILL INDEX.

*  THESE STATIONS ARE NOT NWS OR FAA STATIONS AND ARE NOT UNDER
   NWS QUALITY CONTROL.

LAZ040-048-061>063-065-066-069-311100-
SOUTHEAST LOUISIANA

CITY           SKY/WX    TMP DP  RH WIND       PRES   REMARKS
N.O. AUDUBON   NOT AVBL
N.O. INTL ARPT PTCLDY    73  70  90 CALM      29.93R
N.O. LAKEFRONT CLEAR     78  72  81 W10       29.93R
N.O. DOWNTOWN* FAIR      75  71  87 CALM      29.94R
RESERVE*       FAIR      73  71  94 CALM      29.92S FOG
SLIDELL        PTCLDY    70  69  97 CALM      29.93R
BATON ROUGE    CLOUDY    74  69  85 CALM      29.92S
BOOTHVILLE     PTCLDY    78  71  79 SW7       29.93S
BELLE CHASSE   CLEAR     70  68  93 CALM      29.93R
BOGALUSA*      FAIR      69  66  89 CALM      29.95R
GALLIANO*      SUNNY     66  65  95 CALM      29.93S
NEW ROADS*     FAIR      72  70  95 CALM      29.92S
GONZALES*      FAIR      71  70  99 CALM      29.91S
HAMMOND*       CLEAR     68  64  88 CALM      29.93R
HOUMA*         FOG       71  71 100 CALM      29.92S VSB 3/4
PORT FOURCHON* SUNNY     79  70  73 SW5       29.93S

$$

LAZ041-044-053-054-311100-
SOUTHWEST LOUISIANA

CITY           SKY/WX    TMP DP  RH WIND       PRES   REMARKS
LAKE CHARLES   CLEAR     72  70  93 CALM      29.91S
LAFAYETTE      CLOUDY    75  72  90 CALM      29.92S
PATTERSON      CLOUDY    74  73  97 CALM      29.93R
SALT POINT       N/A     79  73  82 VRB5      29.90S
NEW IBERIA     MOCLDY    75  71  87 CALM      29.92S
CHENAULT AIRPK NOT AVBL

$$

LAZ027-028-311100-
CENTRAL LOUISIANA

CITY           SKY/WX    TMP DP  RH WIND       PRES   REMARKS
FORT POLK      PTCLDY    71  69  95 S3        29.92S
ALEXANDRIA INT PTCLDY    71  70  96 CALM      29.90S
ALEXANDRIA     PTCLDY    69  66  90 CALM      29.92R FOG

$$

LAZ001-002-311100-
NORTHWEST LOUISIANA

CITY           SKY/WX    TMP DP  RH WIND       PRES   REMARKS
SHREVEPORT     CLOUDY    69  68  96 CALM      29.90S
BARKSDALE AFB  CLOUDY    68  68 100 S3        29.90F
DTN SHREVEPORT CLOUDY    69  67  93 SE3       29.91S

$$

LAZ014-016-311100-
NORTHEAST LOUISIANA

CITY           SKY/WX    TMP DP  RH WIND       PRES   REMARKS
MONROE         CLOUDY    71  69  93 CALM      29.93S
TALLULAH       CLOUDY    70  67  90 E3        29.93R

$$





USA.gov is the U.S. government's official web portal to all federal, state and local government web resources and services.